When you browse on this site, cookies collect data to enhance your experience and personalize the content and advertising you see.
Visit our Privacy Policy to learn more. By continuing to use the site, you agree to this use of cookies and data.
  • Em Portugal
  • Lista de países
  • Para 7 dias
  • Temperatura da água
  • Mapas de satélite
  • Mapa do tempo
  • Widgets de tempo
  • user-avatar
    Iniciar Sessão

    Previsão horária em Shuvary

    Hoje, 20 Junho, Quinta-feira

    Tempo Temperatura Precipitação Vento Pressão Humidade
    00:00 +18°C° 0 mm 1 m/s 745 mmHg 85%
    01:00 +16°C° 0 mm 1 m/s 745 mmHg 86%
    02:00 +16°C° 0 mm 1 m/s 745 mmHg 88%
    03:00 +16°C° 0 mm 1 m/s 745 mmHg 88%
    04:00 +18°C° 0 mm 1 m/s 746 mmHg 87%
    05:00 +19°C° 0 mm 1 m/s 746 mmHg 86%
    06:00 +19°C° 0 mm 1 m/s 746 mmHg 85%
    07:00 +20°C° 0 mm 2 m/s 746 mmHg 80%
    08:00 +23°C° 0 mm 2 m/s 746 mmHg 74%
    09:00 +24°C° 0 mm 2 m/s 746 mmHg 68%
    10:00 +25°C° 0 mm 2 m/s 747 mmHg 64%
    11:00 +26°C° 0 mm 2 m/s 747 mmHg 60%
    12:00 +27°C° 0 mm 2 m/s 747 mmHg 55%
    13:00 +27°C° 0 mm 2 m/s 747 mmHg 54%
    14:00 +27°C° 0 mm 2 m/s 747 mmHg 52%
    15:00 +28°C° 0 mm 2 m/s 746 mmHg 52%
    16:00 +28°C° 0 mm 2 m/s 746 mmHg 56%
    17:00 +27°C° 0 mm 2 m/s 746 mmHg 60%
    18:00 +27°C° 0 mm 1 m/s 746 mmHg 64%
    19:00 +25°C° 0 mm 1 m/s 746 mmHg 67%
    20:00 +23°C° 0 mm 1 m/s 747 mmHg 71%
    21:00 +21°C° 0 mm 1 m/s 747 mmHg 74%
    22:00 +20°C° 0 mm 1 m/s 747 mmHg 75%
    23:00 +20°C° 0 mm 1 m/s 747 mmHg 77%

    Amanhã, 21 Junho, Sexta-feira

    Tempo Temperatura Precipitação Vento Pressão Humidade
    00:00 +19°C° 0 mm 1 m/s 747 mmHg 78%
    01:00 +19°C° 0 mm 1 m/s 747 mmHg 79%
    02:00 +18°C° 0 mm 1 m/s 748 mmHg 81%
    03:00 +18°C° 0 mm 1 m/s 748 mmHg 82%
    04:00 +19°C° 0 mm 1 m/s 748 mmHg 79%
    05:00 +21°C° 0 mm 1 m/s 748 mmHg 77%
    06:00 +20°C° 0 mm 0 m/s 749 mmHg 74%
    07:00 +23°C° 0 mm 1 m/s 749 mmHg 70%
    08:00 +25°C° 0 mm 1 m/s 749 mmHg 65%
    09:00 +26°C° 0 mm 1 m/s 749 mmHg 61%
    10:00 +27°C° 0 mm 1 m/s 749 mmHg 56%
    11:00 +28°C° 0 mm 1 m/s 749 mmHg 52%
    12:00 +29°C° 0 mm 2 m/s 749 mmHg 48%
    13:00 +29°C° 0 mm 2 m/s 749 mmHg 49%
    14:00 +29°C° 0 mm 2 m/s 749 mmHg 51%
    15:00 +29°C° 0 mm 2 m/s 749 mmHg 52%
    16:00 +28°C° 0 mm 2 m/s 748 mmHg 56%
    17:00 +28°C° 0 mm 2 m/s 748 mmHg 60%
    18:00 +27°C° 0 mm 2 m/s 748 mmHg 64%
    19:00 +25°C° 0 mm 2 m/s 748 mmHg 65%
    20:00 +24°C° 0 mm 2 m/s 748 mmHg 65%
    21:00 +21°C° 0 mm 2 m/s 748 mmHg 66%
    22:00 +21°C° 0 mm 2 m/s 748 mmHg 67%
    23:00 +20°C° 0 mm 2 m/s 748 mmHg 67%

    Depois de amanhã, 22 Junho, Sábado

    Tempo Temperatura Precipitação Vento Pressão Humidade
    00:00 +20°C° 0 mm 2 m/s 748 mmHg 68%
    01:00 +20°C° 0 mm 2 m/s 748 mmHg 68%
    02:00 +20°C° 0 mm 2 m/s 748 mmHg 69%
    03:00 +20°C° 0 mm 2 m/s 749 mmHg 69%
    04:00 +20°C° 0 mm 2 m/s 749 mmHg 73%
    05:00 +20°C° 0 mm 2 m/s 749 mmHg 76%
    06:00 +21°C° 0 mm 2 m/s 749 mmHg 80%
    07:00 +23°C° 0.1 mm 2 m/s 749 mmHg 77%
    08:00 +24°C° 0.1 mm 3 m/s 749 mmHg 74%
    09:00 +25°C° 0.1 mm 3 m/s 749 mmHg 71%
    10:00 +26°C° 0.3 mm 4 m/s 749 mmHg 66%
    11:00 +27°C° 0.3 mm 4 m/s 749 mmHg 61%
    12:00 +28°C° 0.3 mm 5 m/s 749 mmHg 56%
    13:00 +29°C° 0 mm 5 m/s 748 mmHg 56%
    14:00 +29°C° 0 mm 5 m/s 748 mmHg 56%
    15:00 +29°C° 0 mm 5 m/s 748 mmHg 56%
    16:00 +28°C° 0 mm 5 m/s 748 mmHg 60%
    17:00 +28°C° 0 mm 4 m/s 747 mmHg 65%
    18:00 +27°C° 0 mm 3 m/s 747 mmHg 70%
    19:00 +26°C° 0 mm 3 m/s 747 mmHg 73%
    20:00 +24°C° 0 mm 3 m/s 747 mmHg 77%
    21:00 +22°C° 0 mm 3 m/s 748 mmHg 80%
    22:00 +21°C° 0 mm 3 m/s 748 mmHg 80%
    23:00 +21°C° 0 mm 3 m/s 748 mmHg 80%

    23 Junho, Domingo

    Tempo Temperatura Precipitação Vento Pressão Humidade
    00:00 +20°C° 0 mm 3 m/s 748 mmHg 79%
    01:00 +20°C° 0 mm 3 m/s 748 mmHg 81%
    02:00 +19°C° 0 mm 3 m/s 748 mmHg 83%
    03:00 +19°C° 0 mm 3 m/s 748 mmHg 85%
    04:00 +20°C° 0 mm 3 m/s 748 mmHg 84%
    05:00 +20°C° 0 mm 3 m/s 748 mmHg 83%
    06:00 +21°C° 0 mm 4 m/s 748 mmHg 82%
    07:00 +23°C° 0 mm 4 m/s 748 mmHg 78%
    08:00 +25°C° 0 mm 4 m/s 748 mmHg 75%
    09:00 +27°C° 0 mm 4 m/s 748 mmHg 71%
    10:00 +28°C° 0 mm 4 m/s 748 mmHg 68%
    11:00 +28°C° 0 mm 4 m/s 748 mmHg 65%
    12:00 +29°C° 0 mm 4 m/s 748 mmHg 61%
    13:00 +29°C° 0.3 mm 4 m/s 748 mmHg 62%
    14:00 +29°C° 0.3 mm 4 m/s 748 mmHg 62%
    15:00 +29°C° 0.3 mm 4 m/s 748 mmHg 63%
    16:00 +29°C° 0.4 mm 4 m/s 747 mmHg 67%
    17:00 +28°C° 0.4 mm 3 m/s 747 mmHg 72%
    18:00 +27°C° 0.4 mm 3 m/s 747 mmHg 76%
    19:00 +26°C° 0.1 mm 2 m/s 747 mmHg 80%
    20:00 +24°C° 0.1 mm 2 m/s 747 mmHg 84%
    21:00 +23°C° 0.1 mm 2 m/s 747 mmHg 88%
    22:00 +21°C° 0 mm 2 m/s 747 mmHg 90%
    23:00 +20°C° 0 mm 2 m/s 747 mmHg 91%

    24 Junho, Segunda-feira

    Tempo Temperatura Precipitação Vento Pressão Humidade
    00:00 +20°C° 0 mm 2 m/s 748 mmHg 93%
    01:00 +19°C° 0 mm 2 m/s 748 mmHg 93%
    02:00 +19°C° 0 mm 2 m/s 748 mmHg 93%
    03:00 +18°C° 0 mm 2 m/s 748 mmHg 93%
    04:00 +18°C° 0 mm 3 m/s 748 mmHg 89%
    05:00 +18°C° 0 mm 3 m/s 748 mmHg 85%
    06:00 +18°C° 0 mm 3 m/s 749 mmHg 81%
    07:00 +19°C° 0 mm 3 m/s 749 mmHg 74%
    08:00 +20°C° 0 mm 4 m/s 749 mmHg 68%
    09:00 +21°C° 0 mm 4 m/s 749 mmHg 61%
    10:00 +21°C° 0 mm 5 m/s 750 mmHg 58%
    11:00 +22°C° 0 mm 5 m/s 750 mmHg 54%
    12:00 +23°C° 0 mm 5 m/s 750 mmHg 50%
    13:00 +23°C° 0 mm 5 m/s 750 mmHg 50%
    14:00 +23°C° 0 mm 5 m/s 750 mmHg 50%
    15:00 +23°C° 0 mm 4 m/s 750 mmHg 50%
    16:00 +22°C° 0 mm 4 m/s 750 mmHg 54%
    17:00 +21°C° 0 mm 4 m/s 750 mmHg 58%
    18:00 +21°C° 0 mm 3 m/s 750 mmHg 63%
    19:00 +19°C° 0 mm 3 m/s 751 mmHg 65%
    20:00 +17°C° 0 mm 3 m/s 751 mmHg 68%
    21:00 +15°C° 0 mm 2 m/s 751 mmHg 71%
    22:00 +14°C° 0 mm 2 m/s 751 mmHg 73%
    23:00 +13°C° 0 mm 2 m/s 751 mmHg 76%

    25 Junho, Terça-feira

    Tempo Temperatura Precipitação Vento Pressão Humidade
    00:00 +13°C° 0 mm 2 m/s 751 mmHg 78%
    01:00 +12°C° 0 mm 2 m/s 751 mmHg 80%
    02:00 +12°C° 0 mm 2 m/s 751 mmHg 83%
    03:00 +10°C° 0 mm 2 m/s 752 mmHg 86%
    04:00 +12°C° 0 mm 2 m/s 752 mmHg 84%
    05:00 +12°C° 0 mm 3 m/s 752 mmHg 82%
    06:00 +13°C° 0 mm 3 m/s 752 mmHg 80%
    07:00 +14°C° 0 mm 3 m/s 752 mmHg 75%
    08:00 +15°C° 0 mm 4 m/s 752 mmHg 70%
    09:00 +18°C° 0 mm 4 m/s 752 mmHg 65%
    10:00 +18°C° 0.1 mm 4 m/s 752 mmHg 63%
    11:00 +18°C° 0.1 mm 4 m/s 752 mmHg 62%
    12:00 +19°C° 0.1 mm 4 m/s 752 mmHg 60%
    13:00 +19°C° 0.1 mm 4 m/s 752 mmHg 59%
    14:00 +19°C° 0.1 mm 4 m/s 752 mmHg 58%
    15:00 +19°C° 0.1 mm 5 m/s 752 mmHg 57%
    16:00 +19°C° 0 mm 4 m/s 751 mmHg 60%
    17:00 +18°C° 0 mm 4 m/s 751 mmHg 62%
    18:00 +18°C° 0 mm 3 m/s 751 mmHg 65%
    19:00 +16°C° 0 mm 2 m/s 751 mmHg 70%
    20:00 +14°C° 0 mm 2 m/s 751 mmHg 76%
    21:00 +13°C° 0 mm 1 m/s 751 mmHg 81%
    22:00 +12°C° 0 mm 1 m/s 751 mmHg 82%
    23:00 +11°C° 0 mm 1 m/s 751 mmHg 84%
    Mostrar mais